Location: Armstrong
(40.9123°N, 82.0110°W)
Time: 03:38:31
(UTC+00:00)

Cosmos 1340 - Pass Details

Date: 29 October 2020
Orbit: 501 x 504 km, 81.2° (Epoch: 26 November)

Event Time Altitude Azimuth Distance (km) Brightness Sun altitude
Rises 23:41:23 0° 346° (NNW) 2,614 6.4 -14.6°
Reaches altitude 10° 23:43:32 10° 342° (NNW) 1,724 5.5 -15.0°
Maximum altitude 23:47:14 56° 264° (W) 606 3.4 -15.7°
Drops below altitude 10° 23:50:55 10° 185° (S) 1,711 5.4 -16.4°
Sets 23:53:03 0° 181° (S) 2,590 6.3 -16.8°
